Location: Bowman Observatory
(41.0326°N, 73.6210°W)
Time: 03:45:18

Cosmos 2297 - Visible Passes

Search period start: 26 November 2015 00:00
Search period end: 06 December 2015 00:00
Orbit: 834 x 860 km, 71.0° (Epoch: 25 November)

Date Brightness Start Highest point End Pass type
(mag) Time Alt. Az. Time Alt. Az. Time Alt. Az.
03 Dec 5.9 06:20:11 10° N 06:24:20 21° NE 06:28:37 10° E visible
04 Dec 5.9 06:06:53 10° N 06:11:00 20° NE 06:15:14 10° E visible
05 Dec 5.9 05:53:36 10° N 05:57:40 20° NE 06:01:51 10° E visible
